Mexico City Airport, Mexico

12:54 AM CDT on July 27, 2017 (GMT -0500)
Lic Benito Juarez International

Weather History for MMMX - February, 2014

Change the Weather History Date:

Wednesday, February 19, 2014

  Actual Average Record
Temperature  
Mean Temperature 63 °F -  
Max Temperature 78 °F 75 °F 80 °F (2009)
Min Temperature 48 °F 45 °F 33 °F (1998)
Degree Days  
Heating Degree Days 2    
Growing Degree Days 13 (Base 50)    
Moisture  
Dew Point 28 °F    
Average Humidity 31    
Maximum Humidity 50    
Minimum Humidity 10    
Precipitation  
Precipitation 0.00 in - - ()
Sea Level Pressure  
Sea Level Pressure 30.13 in    
Wind  
Wind Speed 4 mph ()    
Max Wind Speed 15 mph    
Max Gust Speed -    
Visibility 6.8 miles    
Events      
Averages and records for this station are not official NWS values.
T = Trace of Precipitation, MM = Missing Value Source: Averaged Metar Reports

Daily Weather History Graph

Daily Weather History Graph

Search for Another Location

Airport or City:

Trip Planner

Search our weather history database for the weather conditions in past years. The results will help you decide how hot, cold, wet, or windy it might be!

Date:

Astronomy

Feb. 19, 2014 Rise Set
Actual Time 7:02 AM CST 6:38 PM CST
Civil Twilight 6:40 AM CST 7:00 PM CST
Nautical Twilight 6:14 AM CST 7:26 PM CST
Astronomical Twilight 5:48 AM CST 7:51 PM CST
Moon 10:47 PM CST (2/19) 9:50 AM CST (2/19)
Length of Visible Light 12h 20m
Length of Day
11h 35m
Waning Gibbous, 79% of the Moon is Illuminated
Feb 19
Waning Gibbous
Feb 22
Last Quarter
Mar 1
New
Mar 8
First Quarter
Mar 16
Full

Hourly Weather History & Observations

Time (CST) Temp. Dew Point Humidity Pressure Visibility Wind Dir Wind Speed Gust Speed Precip Events Conditions
12:45 AM 57.2 °F 33.8 °F 41% 30.30 in 6.0 mi SSE 2.3 mph - N/A   Clear
12:50 AM 57.2 °F 33.8 °F 41% 30.30 in 6.0 mi SSE 3.5 mph - N/A   Clear
1:44 AM 57.2 °F 33.8 °F 41% 30.28 in 6.0 mi East 2.3 mph - N/A   Clear
2:48 AM 55.4 °F 33.8 °F 44% 29.74 in 6.0 mi East 2.3 mph - N/A   Clear
3:49 AM 48.2 °F 26.6 °F 43% 30.26 in 6.0 mi NNE 5.8 mph - N/A   Clear
3:51 AM 48.2 °F 26.6 °F 43% 30.26 in 6.0 mi NNE 5.8 mph - N/A   Clear
4:50 AM 48.2 °F 30.2 °F 50% 30.26 in 8.0 mi Calm Calm - N/A   Clear
5:45 AM 48.2 °F 28.4 °F 46% 29.78 in 8.0 mi NE 3.5 mph - N/A   Clear
6:21 AM 48.2 °F 28.4 °F 46% 30.27 in 8.0 mi ENE 2.3 mph - N/A   Clear
6:49 AM 48.2 °F 28.4 °F 46% 30.28 in 9.0 mi NE 4.6 mph - N/A   Clear
7:22 AM 48.2 °F 26.6 °F 43% 30.28 in 8.0 mi ENE 5.8 mph - N/A   Clear
7:44 AM 48.2 °F 26.6 °F 43% 30.29 in 8.0 mi NE 6.9 mph - N/A   Clear
8:22 AM 51.8 °F 28.4 °F 41% 30.30 in 7.0 mi ENE 3.5 mph - N/A   Clear
8:24 AM 51.8 °F 28.4 °F 41% 30.30 in 7.0 mi ENE 3.5 mph - N/A   Clear
8:45 AM 53.6 °F 28.4 °F 38% 29.87 in 7.0 mi NE 2.3 mph - N/A   Clear
9:14 AM 57.2 °F 28.4 °F 33% 30.30 in 6.0 mi Calm Calm - N/A   Clear
9:21 AM 59.0 °F 26.6 °F 29% 30.30 in 6.0 mi Calm Calm - N/A   Clear
9:44 AM 60.8 °F 26.6 °F 27% 30.30 in 6.0 mi Calm Calm - N/A   Clear
10:23 AM 64.4 °F 26.6 °F 24% 30.30 in 6.0 mi NNE 2.3 mph - N/A   Clear
10:42 AM 66.2 °F 28.4 °F 24% 30.29 in 6.0 mi ENE 4.6 mph - N/A   Clear
11:04 AM 69.8 °F 26.6 °F 20% 30.28 in 6.0 mi ENE 4.6 mph - N/A   Clear
11:46 AM 71.6 °F 24.8 °F 17% 29.75 in 6.0 mi NW 5.8 mph - N/A   Clear
12:42 PM 73.4 °F 21.2 °F 14% 30.23 in 8.0 mi NW 13.8 mph - N/A   Clear
1:30 PM 77.0 °F 17.6 °F 11% 30.19 in 8.0 mi NNE 9.2 mph - N/A   Clear
1:42 PM 77.0 °F 17.6 °F 11% 30.19 in 8.0 mi NNW 6.9 mph - N/A   Clear
2:43 PM 77.0 °F 21.2 °F 12% 29.63 in 6.0 mi NNE 3.5 mph - N/A   Scattered Clouds
3:44 PM 77.0 °F 21.2 °F 12% 30.12 in 6.0 mi North 3.5 mph - N/A   Partly Cloudy
4:44 PM 78.8 °F 17.6 °F 10% 30.12 in 6.0 mi Variable 3.5 mph - N/A   Clear
5:49 PM 77.0 °F 17.6 °F 11% 29.63 in 6.0 mi Calm Calm - N/A   Scattered Clouds
6:10 PM 73.4 °F 32.0 °F 22% 30.12 in 6.0 mi SE 15.0 mph - N/A   Scattered Clouds
6:43 PM 71.6 °F 33.8 °F 25% 30.13 in 6.0 mi ESE 9.2 mph - N/A   Partly Cloudy
7:44 PM 69.8 °F 33.8 °F 27% 30.16 in 7.0 mi ESE 4.6 mph - N/A   Clear
8:44 PM 68.0 °F 33.8 °F 28% 29.75 in 7.0 mi ESE 8.1 mph - N/A   Partly Cloudy
9:49 PM 66.2 °F 35.6 °F 32% 30.22 in 8.0 mi ESE 6.9 mph - N/A   Partly Cloudy
10:47 PM 64.4 °F 35.6 °F 34% 30.23 in 8.0 mi SSE 5.8 mph - N/A   Scattered Clouds
11:47 PM 64.4 °F 37.4 °F 37% 29.69 in 8.0 mi SSE 4.6 mph - N/A   Clear